User: anonymous   Login
Location: Unspecified
(0.0000°N, 0.0000°E)
Time: 09:23:08
(UTC+00:00)
Language:

YUBILEINY - Orbit

View from above orbital plane
View from above orbital plane
View from above satellite
View from above satellite

Ground track
Ground track

The orbit data is extracted from the following two-line orbital elements,

1 32953U 08025A   19288.03631129  .00000020  00000-0  75656-4 0  9995
2 32953  82.4998  71.1565 0018935 229.8659 130.0765 12.43091770517016
Epoch (UTC): 15 October 2019 00:52:17
Eccentricity: 0.0018935
inclination: 82.4998°
perigee height: 1478 km
apogee height: 1508 km
right ascension of ascending node: 71.1565°
argument of perigee: 229.8659°
revolutions per day: 12.43091770
mean anomaly at epoch: 130.0765°
orbit number at epoch: 51701

The dashed part of the orbit path shows where the satellite is in the earth's shadow,  

DLR